Weather History for Artesia, NM

Change the Weather History Date:

Thursday, January 10, 2013

  Actual Average Record
Temperature  
Mean Temperature 46 °F -  
Max Temperature 59 °F 51 °F 78 °F (2005)
Min Temperature 32 °F 19 °F -7 °F (1977)
Degree Days  
Heating Degree Days 20    
Moisture  
Dew Point 34 °F    
Average Humidity 68    
Maximum Humidity 100    
Minimum Humidity 31    
Precipitation  
Precipitation 0.01 in - - ()
Sea Level Pressure  
Sea Level Pressure 29.94 in    
Wind  
Wind Speed 12 mph (SW)    
Max Wind Speed 31 mph    
Max Gust Speed 40 mph    
Visibility 10 miles    
Events Rain    
Averages and records for this station are not official NWS values.
T = Trace of Precipitation, MM = Missing Value Source: NWS Daily Summary

Daily Weather History Graph

Daily Weather History Graph

Search for Another Location

Airport:

Trip Planner

Search our weather history database for the weather conditions in past years. The results will help you decide how hot, cold, wet, or windy it might be!

Date:

Astronomy

Jan. 10, 2013 Rise Set
Actual Time 7:01 AM MST 5:10 PM MST
Civil Twilight 6:34 AM MST 5:37 PM MST
Nautical Twilight 6:03 AM MST 6:07 PM MST
Astronomical Twilight 5:33 AM MST 6:37 PM MST
Moon 5:43 AM MST (1/10) 4:19 PM MST (1/10)
Length of Visible Light 11h 02m
Length of Day
10h 09m
Waning Crescent, 2% of the Moon is Illuminated
Jan 10
Waning Crescent
Jan 11
New
Jan 18
First Quarter
Jan 26
Full
Feb 3
Last Quarter

Hourly Weather History & Observations

Time (MST) Temp. Windchill Dew Point Humidity Pressure Visibility Wind Dir Wind Speed Gust Speed Precip Events Conditions
1:15 AM 37.4 °F 28.9 °F 37.4 °F 100% 30.09 in 9.0 mi NNW 13.8 mph - 0.01 in Rain Light Rain
1:35 AM 37.4 °F 28.2 °F 37.4 °F 100% 30.09 in 3.0 mi NNW 16.1 mph - 0.01 in Rain Light Rain
1:55 AM 37.4 °F 28.2 °F 37.4 °F 100% 30.09 in 5.0 mi NNW 16.1 mph 21.9 mph 0.01 in Rain Light Rain
2:15 AM 37.4 °F 28.5 °F 37.4 °F 100% 30.08 in 7.0 mi NNW 15.0 mph - N/A   Overcast
2:35 AM 37.4 °F 29.3 °F 37.4 °F 100% 30.07 in 10.0 mi NNW 12.7 mph 19.6 mph N/A   Overcast
2:55 AM 37.4 °F 29.8 °F 37.4 °F 100% 30.06 in 3.0 mi NNW 11.5 mph - N/A Rain Light Rain
3:15 AM 37.4 °F 29.3 °F 37.4 °F 100% 30.06 in 10.0 mi NW 12.7 mph - N/A   Overcast
3:35 AM 37.4 °F 28.9 °F 37.4 °F 100% 30.05 in 10.0 mi NW 13.8 mph - N/A   Overcast
3:55 AM 37.4 °F 29.3 °F 37.4 °F 100% 30.04 in 10.0 mi NNW 12.7 mph - N/A   Overcast
4:15 AM 37.4 °F 30.3 °F 37.4 °F 100% 30.03 in 10.0 mi NW 10.4 mph - N/A   Overcast
4:35 AM 37.4 °F 29.3 °F 37.4 °F 100% 30.02 in 10.0 mi NW 12.7 mph - N/A   Partly Cloudy
4:55 AM 37.4 °F 29.8 °F 37.4 °F 100% 30.02 in 10.0 mi NW 11.5 mph - N/A   Clear
5:35 AM 37.4 °F 31.4 °F 37.4 °F 100% 30.02 in 10.0 mi NNW 8.1 mph - N/A   Overcast
5:55 AM 35.6 °F 30.7 °F 35.6 °F 100% 30.04 in 10.0 mi WNW 5.8 mph - N/A   Partly Cloudy
6:15 AM 35.6 °F 29.9 °F 35.6 °F 100% 30.03 in 10.0 mi WNW 6.9 mph - N/A   Clear
6:35 AM 33.8 °F 27.0 °F 33.8 °F 100% 30.03 in 10.0 mi West 8.1 mph - N/A   Clear
6:55 AM 33.8 °F 27.0 °F 33.8 °F 100% 30.03 in 10.0 mi West 8.1 mph - N/A   Clear
7:35 AM 32.0 °F 25.6 °F 32.0 °F 100% 30.04 in 10.0 mi West 6.9 mph - N/A   Clear
7:55 AM 35.6 °F 30.7 °F 35.6 °F 100% 30.04 in 10.0 mi West 5.8 mph - N/A   Clear
8:15 AM 37.4 °F 33.8 °F 37.4 °F 100% 30.04 in 10.0 mi WSW 4.6 mph - N/A   Clear
8:35 AM 39.2 °F 37.0 °F 39.2 °F 100% 30.04 in 10.0 mi WSW 3.5 mph - N/A   Clear
8:55 AM 41.0 °F - 39.2 °F 93% 30.03 in 10.0 mi Calm Calm - N/A   Clear
9:15 AM 41.0 °F 39.0 °F 37.4 °F 87% 30.03 in 10.0 mi West 3.5 mph - N/A   Clear
9:35 AM 42.8 °F 40.1 °F 35.6 °F 76% 30.04 in 10.0 mi WSW 4.6 mph - N/A   Clear
9:55 AM 44.6 °F 43.1 °F 35.6 °F 71% 30.03 in 10.0 mi SSW 3.5 mph - N/A   Clear
10:15 AM 44.6 °F 43.1 °F 37.4 °F 76% 30.02 in 10.0 mi SSE 3.5 mph - N/A   Clear
10:35 AM 44.6 °F 43.1 °F 37.4 °F 76% 30.01 in 10.0 mi South 3.5 mph - N/A   Clear
10:55 AM 46.4 °F 43.5 °F 37.4 °F 71% 30.00 in 10.0 mi SSE 5.8 mph - N/A   Clear
11:15 AM 46.4 °F 42.4 °F 37.4 °F 71% 29.98 in 10.0 mi SSE 8.1 mph - N/A   Clear
11:35 AM 48.2 °F - 37.4 °F 66% 29.97 in 10.0 mi South 9.2 mph - N/A   Clear
11:55 AM 48.2 °F - 37.4 °F 66% 29.96 in 10.0 mi South 11.5 mph - N/A   Clear
12:15 PM 50.0 °F - 37.4 °F 62% 29.95 in 10.0 mi South 9.2 mph - N/A   Clear
12:35 PM 50.0 °F - 39.2 °F 66% 29.92 in 10.0 mi South 10.4 mph 17.3 mph N/A   Clear
12:55 PM 51.8 °F - 37.4 °F 58% 29.91 in 10.0 mi SSE 8.1 mph - N/A   Clear
1:15 PM 53.6 °F - 37.4 °F 54% 29.90 in 10.0 mi ESE 10.4 mph - N/A   Clear
1:35 PM 55.4 °F - 39.2 °F 54% 29.88 in 10.0 mi SE 10.4 mph - N/A   Clear
1:55 PM 55.4 °F - 39.2 °F 54% 29.89 in 10.0 mi SSE 6.9 mph - N/A   Clear
2:15 PM 57.2 °F - 35.6 °F 44% 29.87 in 10.0 mi SE 4.6 mph - N/A   Clear
2:35 PM 57.2 °F - 33.8 °F 41% 29.86 in 10.0 mi SSE 5.8 mph - N/A   Clear
2:55 PM 59.0 °F - 28.4 °F 31% 29.86 in 10.0 mi WSW 8.1 mph 16.1 mph N/A   Clear
3:15 PM 57.2 °F - 30.2 °F 36% 29.85 in 10.0 mi SW 18.4 mph 23.0 mph N/A   Clear
3:35 PM 57.2 °F - 28.4 °F 33% 29.84 in 10.0 mi WSW 25.3 mph 32.2 mph N/A   Clear
3:55 PM 55.4 °F - 28.4 °F 36% 29.84 in 10.0 mi WSW 20.7 mph 31.1 mph N/A   Clear
4:15 PM 55.4 °F - 28.4 °F 36% 29.83 in 10.0 mi WSW 18.4 mph - N/A   Clear
4:35 PM 55.4 °F - 28.4 °F 36% 29.84 in 10.0 mi WSW 16.1 mph - N/A   Clear
4:55 PM 55.4 °F - 28.4 °F 36% 29.82 in 10.0 mi SW 24.2 mph 27.6 mph N/A   Clear
5:15 PM 55.4 °F - 28.4 °F 36% 29.84 in 10.0 mi SW 17.3 mph - N/A   Clear
5:35 PM 53.6 °F - 28.4 °F 38% 29.84 in 10.0 mi SSW 18.4 mph 25.3 mph N/A   Clear
5:55 PM 53.6 °F - 28.4 °F 38% 29.84 in 10.0 mi South 5.8 mph - N/A   Clear
6:15 PM 50.0 °F - 32.0 °F 50% 29.83 in 10.0 mi SSW 15.0 mph 19.6 mph N/A   Clear
6:35 PM 53.6 °F - 28.4 °F 38% 29.82 in 10.0 mi SW 27.6 mph 40.3 mph N/A   Clear
6:55 PM 51.8 °F - 30.2 °F 44% 29.82 in 10.0 mi SW 15.0 mph 26.5 mph N/A   Clear
7:15 PM 53.6 °F - 28.4 °F 38% 29.82 in 10.0 mi SW 19.6 mph 26.5 mph N/A   Clear
7:35 PM 53.6 °F - 28.4 °F 38% 29.81 in 10.0 mi WSW 29.9 mph 38.0 mph N/A   Clear
7:55 PM 51.8 °F - 30.2 °F 44% 29.83 in 10.0 mi WSW 31.1 mph 38.0 mph N/A   Clear
8:15 PM 53.6 °F - 30.2 °F 41% 29.85 in 10.0 mi WSW 24.2 mph 33.4 mph N/A   Clear
8:35 PM 50.0 °F - 32.0 °F 50% 29.86 in 10.0 mi WSW 17.3 mph - N/A   Clear
8:55 PM 50.0 °F - 32.0 °F 50% 29.86 in 10.0 mi SW 21.9 mph 29.9 mph N/A   Clear
9:15 PM 50.0 °F - 32.0 °F 50% 29.87 in 10.0 mi SW 17.3 mph - N/A   Clear
9:35 PM 48.2 °F - 32.0 °F 54% 29.88 in 10.0 mi SW 12.7 mph - N/A   Clear
9:55 PM 46.4 °F 40.7 °F 32.0 °F 57% 29.86 in 10.0 mi SW 12.7 mph - N/A   Clear
10:15 PM 44.6 °F 39.2 °F 32.0 °F 61% 29.86 in 10.0 mi SSW 10.4 mph - N/A   Clear
10:55 PM 48.2 °F - 32.0 °F 54% 29.84 in 10.0 mi SW 17.3 mph - N/A   Clear
11:15 PM 48.2 °F - 32.0 °F 54% 29.85 in 10.0 mi SW 16.1 mph - N/A   Clear
11:35 PM 48.2 °F - 32.0 °F 54% 29.84 in 10.0 mi SW 15.0 mph - N/A   Clear
11:55 PM 46.4 °F 40.1 °F 33.8 °F 62% 29.84 in 10.0 mi WSW 15.0 mph - N/A   Clear